Location: Ida Center
(41.8662°N, 83.5713°W)
Time: 14:15:28
(UTC+00:00)

Cosmos 2034 Rocket - Pass Details

Date: 17 November 2019
Orbit: 959 x 1000 km, 82.9° (Epoch: 05 December)

Event Time Altitude Azimuth Distance (km) Brightness Sun altitude
Rises 22:59:53 0° 359° (N) 3,719 6.9 -9.1°
Reaches altitude 10° 23:02:36 10° 7° (N) 2,770 6.1 -9.6°
Maximum altitude 23:08:32 40° 75° (ENE) 1,438 4.4 -10.7°
Drops below altitude 10° 23:14:27 10° 144° (SE) 2,763 6.2 -11.7°
Sets 23:17:09 0° 152° (SSE) 3,707 6.9 -12.2°
